Location: Marcé
(47.5801°N, 0.3280°W)
Time: 21:58:13
(UTC+01:00)

Altair - Pass Details

Date: 09 December 2021
Orbit: 1501 x 1683 km, 47.2° (Epoch: 20 January)

Event Time Altitude Azimuth Distance (km) Brightness Sun altitude
Rises 14:11:18 0° 210° (SSW) 4,840 11.7 17.4°
Reaches altitude 10° 14:14:44 10° 203° (SSW) 3,831 12.3 17.2°
Maximum altitude 14:23:23 38° 140° (SE) 2,241 8.9 16.7°
Drops below altitude 10° 14:31:44 10° 77° (ENE) 3,716 9.2 16.2°
Sets 14:35:00 0° 69° (ENE) 4,681 9.6 16.0°
